FW0071 Weather Reports


time (UTC)temp
C
wind
direction
speed
KPH
gust
KPH
rain 1hr
cm
rain 24hr
cm
rain mn
cm
humidity
%
barometer
mb
20260504050007 11 111 0.0 0.0 0.00 0.43 0.23 93 1011.3
20260504044509 11 114 0.0 0.0 0.00 0.43 0.23 93 1011.2
20260504043006 11 119 0.0 4.8 0.00 0.43 0.23 93 1011.3
20260504041506 11 171 0.0 0.0 0.00 0.43 0.23 93 1011.4
20260504040015 11 132 0.0 1.6 0.00 0.43 0.23 93 1011.0
20260504034503 12 103 0.0 4.8 0.00 0.43 0.23 92 1010.9
20260504033001 12 107 0.0 1.6 0.20 0.43 0.23 92 1010.9
20260504031604 12 95 0.0 3.2 0.23 0.43 0.23 92 1011.1
20260504030055 12 119 0.0 0.0 0.23 0.43 0.23 91 1011.5
20260504024557 12 143 0.0 0.0 0.23 0.43 0.23 90 1011.8
20260504023055 12 215 0.0 0.0 0.05 0.23 0.05 90 1012.4
20260504021556 12 124 0.0 0.0 0.00 0.20 0.00 89 1012.6
20260504014554 12 124 0.0 0.0 0.00 0.25 0.00 89 1011.9
20260504013050 12 158 0.0 0.0 0.00 0.25 0.00 89 1011.8
20260504011549 12 141 0.0 0.0 0.00 0.25 0.00 88 1011.9
20260504010047 12 115 0.0 0.0 0.00 0.25 0.00 88 1011.7
20260504004546 12 131 0.0 0.0 0.00 0.46 0.00 88 1012.2
20260504003047 12 116 0.0 0.0 0.00 0.46 0.00 88 1012.2
20260504001544 12 117 0.0 0.0 0.00 0.46 0.00 88 1012.0
20260504000047 13 185 0.0 1.6 0.00 0.46 0.00 87 1012.1
20260503234541 13 124 0.0 1.6 0.00 0.64 0.00 87 1012.0
20260503233040 13 125 0.0 1.6 0.00 0.64 0.00 87 1012.4
20260503231538 13 138 0.0 0.0 0.00 0.64 0.00 88 1012.4
20260503230037 13 115 0.0 3.2 0.00 0.71 0.00 88 1012.4
20260503224534 13 102 0.0 1.6 0.00 0.71 0.00 88 1012.6
20260503223033 13 92 0.0 0.0 0.00 0.71 0.00 88 1012.8
20260503221533 13 117 0.0 0.0 0.00 0.71 0.00 88 1013.0
20260503220029 13 105 0.0 0.0 0.00 0.71 0.71 88 1012.8
20260503214539 13 110 0.0 0.0 0.00 0.71 0.71 89 1012.8
20260503213029 13 110 0.0 0.0 0.00 0.71 0.71 89 1012.7
20260503211528 13 110 0.0 3.2 0.00 0.71 0.71 90 1012.6
20260503210027 13 108 0.0 0.0 0.00 0.71 0.71 91 1012.6
20260503204530 13 108 0.0 0.0 0.00 0.71 0.71 91 1012.6
20260503203026 13 108 0.0 0.0 0.00 0.71 0.71 92 1012.2
20260503201526 13 161 0.0 0.0 0.00 0.71 0.71 92 1011.9
20260503200033 13 106 0.0 0.0 0.00 0.71 0.71 92 1012.0
20260503194524 13 106 0.0 0.0 0.00 0.71 0.71 92 1012.0
20260503193031 13 132 0.0 0.0 0.00 0.71 0.71 92 1011.9
20260503191524 13 132 0.0 0.0 0.00 0.71 0.71 92 1011.8
20260503190022 14 132 0.0 0.0 0.00 0.71 0.71 92 1011.5
20260503184526 14 132 0.0 0.0 0.00 0.71 0.71 92 1011.7
20260503183022 14 132 0.0 0.0 0.03 0.71 0.71 92 1011.7
20260503181521 14 132 0.0 0.0 0.03 0.71 0.71 91 1011.7
20260503180038 14 132 0.0 0.0 0.03 0.71 0.71 91 1011.5
20260503174525 14 132 0.0 3.2 0.05 0.71 0.71 90 1011.3
20260503173025 14 127 0.0 0.0 0.05 0.69 0.69 90 1011.0
20260503171518 14 127 0.0 0.0 0.05 0.69 0.69 89 1011.1
20260503081535 15 98 0.0 3.2 0.00 0.51 0.51 82 1014.6
20260503071518 13 113 0.0 4.8 0.00 0.99 0.51 84 1014.5